Volver al catálogo

CZ-6A DEB

ActivoSSO
NORAD 54299·DEBRIS·🇨🇳 China

Lanzado Nov 11, 2022 desde Taiyuan Satellite Launch Center

Loading…

Próximos Pases (próximas 24 horas)

TLE

ActualizadoSource: Space-Track

Época: Sep 14, 2026, 05:10 UTC

1 54299U 22151AS  26257.21593020  .00000120  00000-0  95182-4 0  9996
2 54299  98.8626 251.2667 0055399  99.0658 261.6786 14.07650295196659

Sigue CZ-6A DEB en tiempo real con AllMySat

Download on the App Store